Погода в Вашковцах

Украина / Черновицкая область     48°22′50″N   25°29′57″E
темп.,
°C
ветер,
м/с
пор.,
м/с
влажн.,
%
обл.,
%
осадки,
мм/ч
давл.,
гПа
погр.,
м
17 июня, чт
чт1700:00+15зсз229326 1.7 101924
03:00+14зсз22944 1.7 101932
06:00+13сз35965 0.0 1018106
09:00+18ссз3486100 0.1 1020449
12:00+22с447177 0.6 10201048
15:00+24ссв3562100 1.3 10191614
18:00+23св3474100 0.9 1019842
21:00+19св228686 1.9 102028
18 июня, пт
пт1800:00+16ссз12925 0.3 102113
03:00+15сз229566 0.4 102030
06:00+15ссз23960 0.0 102055
09:00+19ссз238872 0.0 1021521
12:00+22ссв358092 0.6 1019858
15:00+24всв5674100 2.9 10181344
18:00+21в47886 2.0 1018670
21:00+19всв36941 4.1 1019145
19 июня, сб
сб1900:00+16в12940 0.1 101926
03:00+15всв11934 0.1 101911
06:00+15св1195100 0.0 101919
09:00+17всв2495100 0.1 1019223
12:00+17ю1195100 0.3 1019137
15:00+20вюв228381 1.9 1018561
18:00+21вюв2477100 2.2 1017948
21:00+18в22895 3.5 101712
20 июня, вс
вс2000:00+16юв11925 0.1 101711
03:00+15вюв11935 0.1 101710
06:00+14юв00935 0.0 101711
09:00+19юв12857 0.0 1017334
12:00+23всв227193 0.0 1016862
15:00+25всв3366100 0.3 10141264
18:00+22в3584100 4.6 1014338
21:00+19вюв1288100 11.2 101420
21 июня, пн
пн2100:00+17в119328 0.2 101322
03:00+16вюв22965 0.2 101316
06:00+16ююв11968 0.0 101311
09:00+20вюв238722 0.0 1013398
12:00+23вюв447560 0.1 10121027
15:00+24вюв447052 0.2 10111146
18:00+25юв447215 0.0 10111137
21:00+21вюв368847 0.1 101097